Location: Beneden-Haastrecht
(52.0012°N, 4.7557°E)
Time: 02:40:58
(UTC+00:00)

HJ-1C - Pass Details

Date: 24 October 2020
Orbit: 430 x 444 km, 97.1° (Epoch: 24 November)

Event Time Altitude Azimuth Distance (km) Brightness Sun altitude
Exits shadow 18:29:27 66° 134° (SE) 494 3.3 -19.4°
Maximum altitude 18:29:49 77° 76° (ENE) 466 3.2 -19.5°
Drops below altitude 10° 18:33:13 10° 349° (N) 1,586 6.4 -20.0°
Sets 18:35:16 0° 348° (NNW) 2,463 7.4 -20.3°
